Location: Caltech
(34.1382°N, 118.1253°W)
Time: 12:23:04
(UTC-08:00)

Oscar 10/S400 - Visible Passes

Search period start: 04 December 2016 00:00
Search period end: 14 December 2016 00:00
Orbit: 4027 x 35420 km, 26.9° (Epoch: 04 December)

Date Brightness Start Highest point End Pass type
(mag) Time Alt. Az. Time Alt. Az. Time Alt. Az.
04 Dec ? 20:41:04 10° E 01:53:55 32° E 04:07:41 10° E visible
05 Dec ? 21:28:21 10° ENE 01:10:51 23° ENE 03:06:38 10° E visible
06 Dec ? 22:22:29 10° ENE 00:27:59 15° ENE 01:51:15 10° ENE visible
08 Dec ? 05:39:33 10° W 07:14:09 16° W 10:01:48 10° WNW visible
09 Dec ? 04:25:26 10° W 06:30:21 24° W 13:56:47 10° SW visible
10 Dec ? 03:25:18 10° WSW 05:47:24 33° W 13:23:56 10° SSW visible
11 Dec ? 02:31:12 10° WSW 05:05:28 42° W 12:44:06 10° S visible
12 Dec ? 01:40:33 10° WSW 04:25:20 51° WSW 12:02:35 10° S visible
13 Dec ? 00:52:05 10° SW 03:48:40 59° WSW 11:20:14 10° SSE visible
